Theta_e
275 276 278 283 286 293 293 292 291 287 288 294 297 308 321 319 311 319 321 312 317 317 318 318 319 320 321 323 324 325 326 325 324 325 325 325 325 325
276 276 279 283 284 291 293 294 294 292 287 293 297 300 315 318 310 320 317 308 312 314 315 315 317 318 319 320 322 323 324 325 325 325 325 325 325 325
273 273 275 278 282 287 292 293 294 295 290 292 296 299 300 317 313 319 312 318 313 309 312 313 314 315 316 318 319 320 322 323 323 323 324 324 324 324
272 273 274 279 282 284 291 291 292 294 293 290 295 297 296 313 313 317 314 316 315 308 311 312 313 313 314 315 316 316 317 318 319 320 320 322 322 323
271 271 273 276 279 282 289 289 291 294 294 293 292 295 296 314 313 311 314 314 314 308 311 310 311 312 312 313 313 311 310 312 313 313 315 317 318 320
272 272 273 275 278 281 284 287 289 289 289 291 290 293 296 311 312 309 307 311 309 311 309 310 309 308 311 311 309 306 307 309 311 311 310 311 313 314
271 272 273 277 279 282 283 286 288 287 287 287 288 289 299 308 307 308 307 308 308 311 310 309 311 311 311 307 304 303 307 308 309 308 308 308 309 309
273 274 275 276 279 282 284 287 289 286 285 285 286 287 298 308 308 307 305 303 299 308 307 307 313 311 313 314 308 307 307 306 306 306 306 306 306 306
273 273 274 276 278 281 284 287 289 292 290 286 285 286 304 309 307 305 304 303 302 306 308 305 306 310 312 311 305 306 305 305 305 305 305 305 305 304
274 274 274 275 277 280 283 284 285 286 287 288 288 289 290 311 309 308 306 303 305 306 308 301 294 306 292 308 304 305 305 304 304 304 305 305 304 303
275 274 274 275 278 281 281 281 283 285 289 289 291 292 294 305 308 307 300 298 297 301 304 302 290 287 286 288 303 304 304 304 303 303 304 304 303 302
275 275 276 275 278 282 281 282 281 283 285 285 286 298 302 303 303 306 303 299 299 298 301 301 292 293 289 286 290 301 303 302 302 303 303 303 302 304
273 276 275 278 280 282 284 283 283 286 286 285 285 299 301 303 303 304 305 303 299 300 302 296 298 295 290 285 287 297 301 301 303 302 302 302 301 304
273 276 276 279 281 284 284 286 287 287 286 285 284 296 299 301 302 303 304 305 305 304 303 300 298 301 294 287 295 286 298 299 302 301 301 302 301 302
274 275 278 280 282 283 285 288 286 287 285 284 285 295 299 302 303 301 302 301 301 296 302 302 301 302 300 289 296 294 292 293 299 299 299 299 300 301
272 272 274 277 280 282 283 287 286 286 285 285 287 297 299 299 298 300 299 299 295 291 297 302 298 301 299 291 295 293 297 290 296 297 298 298 299 300
273 272 272 275 276 282 284 285 285 286 286 287 291 294 296 296 296 298 298 296 294 291 292 292 292 300 300 291 292 294 295 294 295 296 294 294 296 298
268 269 272 273 274 281 283 284 285 285 287 290 293 294 294 295 294 295 296 295 294 293 293 292 292 293 288 289 292 293 295 296 294 293 295 294 293 295
261 262 263 265 267 270 272 279 285 287 290 292 293 294 294 294 293 293 294 294 294 293 293 292 292 294 291 292 289 291 294 294 292 292 294 295 295 294
260 262 262 263 265 267 268 269 272 282 291 293 293 293 292 292 292 292 292 293 293 291 290 290 292 295 296 295 288 289 290 293 291 292 292 295 294 292
259 261 263 263 264 266 266 267 269 270 290 292 292 291 291 292 291 292 292 292 292 291 290 289 293 292 292 294 290 287 289 290 293 292 291 291 290 289
260 261 263 264 264 266 265 265 266 269 286 291 291 291 291 292 292 291 291 291 292 292 292 292 291 291 291 293 293 290 287 288 289 289 291 292 290 287
259 260 264 264 264 266 266 264 265 266 270 283 290 290 290 290 291 292 291 291 292 291 291 289 289 291 292 292 293 291 286 286 287 286 288 290 286 286
Wind_Speed
15 17 16 14 14 13 9 10 12 12 11 12 9 18 14 9 13 19 20 37 35 37 35 35 35 30 30 31 31 32 31 30 27 26 26 27 28 27
12 15 15 13 13 14 11 10 13 12 15 9 12 12 15 10 17 13 22 22 36 38 34 33 33 30 28 29 30 30 31 30 27 25 26 28 27 25
17 18 20 20 14 16 11 10 11 10 13 11 15 16 18 18 16 17 17 19 17 25 29 31 29 26 26 27 28 28 29 27 26 27 28 28 27 25
18 18 18 14 18 17 11 13 11 13 12 18 12 12 13 17 20 22 19 17 20 30 32 30 30 27 26 26 24 24 22 24 27 28 27 27 25 25
19 19 18 20 18 13 15 9 10 10 13 12 13 10 13 16 16 17 20 20 18 33 34 29 29 29 27 25 24 21 22 24 25 24 25 24 23 24
19 18 18 21 19 16 13 12 10 9 11 8 9 14 16 17 16 17 17 14 16 18 21 23 24 25 25 26 25 22 23 24 25 25 22 22 22 22
19 19 19 21 30 27 13 11 10 8 8 10 13 10 17 19 21 15 17 16 18 18 17 12 14 14 15 20 19 24 25 25 26 25 24 23 23 22
18 17 18 23 25 33 34 31 18 11 12 9 12 14 29 20 17 19 18 18 16 11 19 15 16 16 14 13 22 27 25 25 25 25 26 24 22 23
18 18 16 15 21 17 23 28 26 23 21 11 16 22 18 23 21 23 23 23 19 17 19 16 12 16 13 11 23 26 26 26 27 27 27 26 24 22
19 20 19 19 19 18 14 15 15 12 13 11 17 19 23 23 25 27 27 23 16 17 19 16 7 13 3 9 24 26 27 27 27 28 28 28 25 24
19 18 17 19 25 30 18 16 16 16 15 24 30 39 45 32 27 19 19 19 16 17 15 11 4 5 2 3 11 25 27 27 28 28 27 28 27 26
13 17 22 21 30 28 19 16 17 15 13 17 19 23 27 26 34 27 22 23 18 15 14 15 8 8 4 2 3 11 13 26 28 27 27 27 27 14
13 12 10 25 27 31 30 16 16 11 14 14 15 14 17 20 18 21 27 24 22 17 19 7 14 10 5 5 3 8 12 12 11 16 27 27 29 22
15 10 10 22 25 26 21 23 27 24 12 11 10 12 15 16 18 20 24 22 23 26 25 16 13 20 10 4 11 2 9 10 12 13 12 18 28 26
12 18 26 25 26 24 27 28 21 12 9 9 10 11 13 15 20 20 20 19 18 11 25 21 18 21 15 5 13 10 10 6 10 12 11 13 14 15
19 14 17 22 25 21 14 12 6 7 7 9 12 11 12 13 11 14 14 16 12 8 17 24 19 23 15 6 13 12 11 10 10 11 12 11 12 14
18 9 9 9 8 8 9 10 7 6 8 10 13 10 11 12 12 13 14 12 13 14 13 8 7 19 12 12 10 14 14 9 12 12 11 12 12 14
9 5 6 7 8 8 7 7 7 9 9 10 9 12 12 14 13 12 13 15 15 13 14 12 12 11 5 3 2 14 13 14 11 14 14 14 13 11
12 11 10 10 11 10 9 9 6 8 10 10 8 11 12 11 15 14 13 14 14 15 14 14 17 17 16 17 6 7 14 14 13 13 14 15 14 14
13 12 12 12 11 11 10 10 9 11 9 8 9 11 12 14 14 15 14 16 14 13 12 14 17 20 23 21 9 6 12 13 12 15 14 10 4 4
14 13 12 12 12 11 11 10 10 9 10 8 10 10 11 13 14 14 14 20 17 15 17 17 17 10 4 9 9 8 12 16 18 18 12 12 11 7
14 13 14 13 13 13 12 11 10 10 10 9 9 11 11 13 14 14 15 16 14 14 14 11 11 10 8 12 16 11 10 11 9 15 19 22 13 13
14 14 14 14 14 13 13 13 11 11 11 8 9 11 11 11 12 14 14 14 14 13 13 13 12 11 14 12 13 11 13 13 13 12 11 22 8 10
Wind_Direction
267 264 266 270 281 245 234 233 246 261 263 261 264 291 191 188 157 187 183 164 162 157 156 154 155 164 173 170 173 169 175 178 181 179 173 171 174 176
270 279 276 268 271 257 233 234 234 239 257 247 242 252 264 181 163 181 154 153 155 154 157 158 156 165 170 172 172 173 176 179 180 178 174 172 175 177
269 265 264 266 265 276 225 229 235 247 242 256 250 244 290 180 174 167 154 155 148 147 155 159 156 164 168 172 171 176 176 176 172 168 167 171 169 173
268 268 272 272 267 282 242 232 231 240 248 253 253 261 268 187 186 174 168 162 159 158 161 166 163 165 171 171 169 173 168 163 163 165 161 170 162 166
268 269 267 268 263 265 261 236 243 239 242 245 251 273 261 190 187 154 162 162 163 160 157 163 165 168 172 172 168 162 153 161 163 160 163 164 164 164
267 262 265 261 261 263 273 236 251 253 268 237 253 256 238 216 170 165 155 157 151 160 155 169 165 168 169 171 163 158 157 160 158 157 159 156 160 160
262 262 262 264 261 258 259 270 216 238 255 262 256 280 241 198 171 162 155 152 156 154 154 167 171 177 173 168 166 161 162 160 157 159 158 156 161 153
271 264 261 263 258 257 259 259 249 212 233 245 260 260 250 173 162 158 151 147 148 172 153 176 181 185 182 180 175 167 162 156 158 160 161 157 165 155
266 268 265 259 266 253 256 261 274 229 229 252 259 247 228 168 164 159 159 156 165 157 164 177 187 182 175 174 166 164 161 160 161 164 163 161 168 158
253 254 258 263 259 262 257 254 249 237 235 252 248 263 264 180 169 167 167 156 150 155 171 171 184 166 150 169 165 169 164 166 164 167 167 165 167 159
250 245 246 254 255 258 256 261 269 265 272 273 273 266 256 181 171 155 154 151 157 165 183 156 167 114 69 96 173 174 166 170 166 169 170 167 169 162
268 252 243 246 255 255 246 245 250 259 279 287 284 260 190 166 172 164 160 158 159 164 183 166 149 141 128 7 153 174 169 173 167 170 170 169 164 170
286 280 240 247 253 242 247 242 252 273 259 266 277 225 175 168 167 163 166 162 161 173 166 135 168 166 104 125 150 179 170 171 173 173 170 170 170 172
290 304 258 256 260 254 249 248 246 242 248 259 280 229 170 175 166 165 168 170 177 167 164 158 170 177 155 158 171 135 171 167 173 174 176 176 173 177
296 290 294 294 298 260 258 259 234 229 236 248 263 218 171 171 167 161 167 169 164 143 171 174 165 181 177 152 168 168 151 174 173 164 169 175 184 181
300 290 281 283 283 273 255 247 212 215 227 242 260 201 164 166 161 157 170 160 152 147 185 174 159 172 177 155 159 160 170 166 170 172 170 179 183 187
303 273 274 266 263 246 243 228 221 225 235 234 243 184 162 163 164 162 164 154 158 156 161 148 162 171 170 148 155 168 171 167 181 173 171 180 193 187
332 322 316 333 321 298 227 223 228 228 233 239 204 179 165 169 157 163 162 167 160 164 161 158 149 145 104 349 223 168 174 177 177 179 185 189 193 195
13 4 359 347 340 335 328 320 245 231 237 229 183 180 167 162 160 166 164 167 166 165 166 162 166 172 176 191 149 232 166 175 171 181 190 199 195 196
5 2 355 349 341 335 323 316 311 299 241 209 179 178 171 165 167 171 167 170 165 163 160 170 181 185 192 189 155 174 190 165 173 185 190 200 181 122
357 354 358 348 340 335 325 318 315 301 258 197 180 177 174 170 171 171 171 174 166 168 173 185 188 169 132 131 161 166 190 198 180 175 170 176 188 189
358 348 356 352 344 342 340 333 329 324 284 188 180 175 176 179 173 170 175 174 181 178 176 164 163 168 169 186 192 168 166 179 190 170 183 172 166 204
352 350 355 356 352 346 350 348 343 330 322 312 178 180 175 179 178 174 174 179 175 172 170 163 165 176 189 191 185 177 167 170 172 181 196 198 124 100